Flag Weather past 2 weeks in Greeley, Colorado, U.S.A.

Now
39 °F

Sunny.


Feels Like: 36 °F
Forecast: 23 / 41 °F
Wind: 5 mph from Northwest

Location: Greeley / Weld

Current Time: Nov 22, 2014 at 5:05:55 PM

Latest Report: Nov 22, 2014 at 4:35 PM


Visibility: 10 mi

Pressure: 29.58 "Hg

Humidity: 56%

Dew point: 25 °F

Location of GreeleyLocation

Historic Weather in Greeley — Graph

°F

Greeley temperature yesterday

Maximum temperature yesterday: 57 °F (at 2:35 PM)
Minimum temperature yesterday: 21 °F (at 2:55 AM)
Average temperature yesterday: 34 °F

Past Weeks' High & Low Weather Summary

 TemperatureHumidityPressure
High63 °F (Nov 8, 1:35 PM)87% (Nov 8, 1:55 AM)30.50 "Hg (Nov 8, 1:55 AM)
Low-13 °F (Nov 13, 2:35 AM)22% (Nov 17, 3:15 PM)29.42 "Hg (Nov 10, 4:35 AM)
Average24 °F58%30.06 "Hg
* Reported Nov 7 3:15 PM — Nov 22 3:55 PM, Greeley, Weather by CustomWeather, © 2014

Note: Actual official high and low records may vary slightly from our data, if they occured in-between our weather recording intervals... More about our weather records

Advertising

Greeley weather history for previous 24 hours

 ConditionsComfort  
Time TempWeatherWind HumidityBarometerVisibility
3:55 PM
Nov 22
43 °FSunny.8 mph49%29.58 "Hg10 mi
3:35 PM45 °FSunny.7 mph46%29.58 "Hg10 mi
3:15 PM46 °FSunny.7 mph46%29.58 "Hg10 mi
2:55 PM46 °FSunny.No wind43%29.57 "Hg10 mi
2:35 PM46 °FSunny.No wind43%29.58 "Hg10 mi
2:15 PM46 °FSunny.No wind46%29.59 "Hg10 mi
1:55 PM46 °FSunny.No wind43%29.59 "Hg8 mi
1:35 PM46 °FSunny.6 mph43%29.60 "Hg5 mi
1:15 PM45 °FSunny.6 mph46%29.61 "Hg10 mi
12:55 PM45 °FSunny.6 mph46%29.61 "Hg9 mi
12:35 PM45 °FSunny.5 mph46%29.62 "Hg10 mi
12:15 PM45 °FSunny.7 mph53%29.62 "Hg10 mi
11:55 AM45 °FSunny.No wind49%29.62 "Hg10 mi
11:35 AM43 °FSunny.6 mph53%29.65 "Hg10 mi
11:15 AM39 °FSunny.5 mph56%29.65 "Hg9 mi
10:55 AM37 °FSunny.No wind60%29.68 "Hg10 mi
10:35 AM36 °FSunny.No wind56%29.70 "Hg10 mi
10:15 AM36 °FSunny.No wind56%29.72 "Hg10 mi
9:55 AM36 °FSunny.3 mph56%29.73 "Hg10 mi
9:35 AM36 °FSunny.5 mph60%29.74 "Hg10 mi
9:15 AM36 °FSunny.6 mph65%29.76 "Hg10 mi
8:55 AM30 °FSunny.8 mph69%29.77 "Hg10 mi
8:35 AM28 °FSunny.3 mph64%29.76 "Hg10 mi
8:15 AM28 °FSunny.No wind64%29.76 "Hg10 mi
7:55 AM27 °FSunny.No wind69%29.76 "Hg10 mi
7:35 AM25 °FSunny.5 mph74%29.77 "Hg10 mi
6:55 AM18 °FSunny.No wind68%29.78 "Hg10 mi
6:35 AM19 °FClear.No wind68%29.79 "Hg10 mi
5:55 AM19 °FClear.No wind68%29.81 "Hg10 mi
5:35 AM18 °FClear.5 mph68%29.81 "Hg10 mi
5:15 AM18 °FClear.No wind73%29.81 "Hg10 mi
4:55 AM18 °FClear.No wind73%29.82 "Hg10 mi
4:35 AM18 °FClear.No wind68%29.83 "Hg10 mi
3:55 AM18 °FClear.5 mph73%29.84 "Hg10 mi
3:35 AM18 °FClear.No wind68%29.86 "Hg10 mi
3:15 AM18 °FClear.No wind73%29.87 "Hg10 mi
2:55 AM19 °FClear.No wind73%29.87 "Hg10 mi
2:35 AM19 °FClear.No wind68%29.88 "Hg10 mi
2:15 AM19 °FClear.No wind68%29.89 "Hg10 mi
1:55 AM21 °FClear.No wind68%29.89 "Hg10 mi
1:35 AM18 °FClear.No wind68%29.90 "Hg10 mi
1:15 AM19 °FClear.No wind68%29.90 "Hg10 mi
12:55 AM19 °FClear.No wind68%29.92 "Hg10 mi
12:35 AM21 °FClear.3 mph68%29.93 "Hg10 mi
12:15 AM21 °FClear.No wind68%29.93 "Hg10 mi
11:55 PM
Nov 21
21 °FClear.No wind68%29.94 "Hg10 mi
11:35 PM23 °FClear.No wind68%29.93 "Hg10 mi
11:15 PM21 °FClear.No wind68%29.94 "Hg10 mi
10:55 PM23 °FClear.6 mph63%29.94 "Hg10 mi
10:35 PM23 °FClear.5 mph63%29.95 "Hg10 mi
10:15 PM25 °FClear.5 mph63%29.96 "Hg10 mi
9:55 PM23 °FClear.7 mph63%29.96 "Hg10 mi
9:35 PM25 °FClear.No wind59%29.96 "Hg10 mi
9:15 PM25 °FClear.5 mph63%29.96 "Hg10 mi
8:55 PM25 °FClear.No wind63%29.96 "Hg10 mi
8:35 PM28 °FClear.3 mph59%29.96 "Hg10 mi
8:15 PM27 °FClear.No wind64%29.96 "Hg10 mi
7:55 PM28 °FClear.3 mph64%29.96 "Hg10 mi
7:35 PM28 °FClear.5 mph64%29.96 "Hg10 mi
7:15 PM34 °FClear.5 mph51%29.96 "Hg10 mi
6:55 PM32 °FClear.No wind51%29.95 "Hg10 mi
6:35 PM36 °FClear.7 mph48%29.95 "Hg10 mi
6:15 PM34 °FClear.6 mph51%29.95 "Hg10 mi
5:55 PM36 °FClear.No wind52%29.95 "Hg10 mi
5:35 PM39 °FClear.No wind42%29.93 "Hg10 mi
5:15 PM41 °FClear.No wind42%29.93 "Hg10 mi
Weather by CustomWeather, © 2014

See weather overviewHow to use our weather pages